Buckhannon, WV

4:19 PM EST on December 09, 2019 (GMT -0500)
Buckhannon

Weather History for KW22 - November, 2019

Change the Weather History Date:

Wednesday, November 13, 2019

  Actual Average (WUND) Record (WUND)
Temperature  
Mean Temperature 19 °F -  
Max Temperature 28 °F - - (-1)
Min Temperature 10 °F - - (-1)
Degree Days  
Heating Degree Days 46    
Moisture  
Dew Point 13 °F    
Average Humidity 76    
Maximum Humidity 92    
Minimum Humidity 54    
Precipitation  
Precipitation 0.00 in - - ()
Sea Level Pressure  
Sea Level Pressure 30.30 in    
Wind  
Wind Speed 1 mph (SSE)    
Max Wind Speed 6 mph    
Max Gust Speed -    
Visibility 10 miles    
Events      
Averages and records for this station are not official NWS values.
T = Trace of Precipitation, MM = Missing Value Source: NWS Daily Summary

Daily Weather History Graph

Daily Weather History Graph

Search for Another Location

Airport or City:

Astronomy

Nov. 13, 2019 Rise Set
Actual Time 7:01 AM EST 5:08 PM EST
Civil Twilight 6:33 AM EST 5:37 PM EST
Nautical Twilight 6:00 AM EST 6:09 PM EST
Astronomical Twilight 5:29 AM EST 6:40 PM EST
Moon 6:11 PM EST (11/13) 7:53 AM EST (11/13)
Length of Visible Light 11h 04m
Length of Day
10h 07m
Full, 99% of the Moon is Illuminated
Nov 13
Full
Nov 19
Last Quarter
Nov 26
New
Dec 4
First Quarter
Dec 12
Full

Hourly Weather History & Observations

Time (EST) Temp. Windchill Dew Point Humidity Pressure Visibility Wind Dir Wind Speed Gust Speed Precip Events Conditions
12:15 AM 15.8 °F - 10.4 °F 79% 30.31 in 10.0 mi Calm Calm - N/A   Partly Cloudy
12:35 AM 14.0 °F - 10.4 °F 86% 30.31 in 10.0 mi Calm Calm - N/A   Clear
12:55 AM 14.0 °F - 10.4 °F 86% 30.31 in 10.0 mi Calm Calm - N/A   Clear
1:15 AM 14.0 °F 6.5 °F 10.4 °F 86% 30.31 in 10.0 mi West 4.6 mph - N/A   Clear
1:35 AM 14.0 °F - 10.4 °F 86% 30.31 in 10.0 mi Calm Calm - N/A   Clear
1:55 AM 14.0 °F - 10.4 °F 86% 30.31 in 10.0 mi Calm Calm - N/A   Clear
2:15 AM 12.2 °F 6.1 °F 10.4 °F 92% 30.31 in 10.0 mi SSW 3.5 mph - N/A   Clear
2:35 AM 12.2 °F 6.1 °F 10.4 °F 92% 30.31 in 10.0 mi SSW 3.5 mph - N/A   Clear
2:55 AM 12.2 °F - 10.4 °F 92% 30.31 in 10.0 mi Calm Calm - N/A   Clear
3:35 AM 12.2 °F - 10.4 °F 92% 30.32 in 10.0 mi Calm Calm - N/A   Clear
4:15 AM 12.2 °F - 10.4 °F 92% 30.33 in 10.0 mi Calm Calm - N/A   Clear
4:35 AM 12.2 °F - 8.6 °F 85% 30.34 in 10.0 mi Calm Calm - N/A   Clear
4:55 AM 10.4 °F - 8.6 °F 92% 30.34 in - Calm Calm - N/A   Unknown
5:15 AM 10.4 °F - 8.6 °F 92% 30.35 in 10.0 mi Calm Calm - N/A   Mostly Cloudy
5:35 AM 10.4 °F 4.0 °F 8.6 °F 92% 30.35 in 10.0 mi SSW 3.5 mph - N/A   Overcast
5:55 AM 10.4 °F - 8.6 °F 92% 30.35 in 10.0 mi Calm Calm - N/A   Overcast
6:15 AM 10.4 °F 4.0 °F 6.8 °F 85% 30.35 in 10.0 mi South 3.5 mph - N/A   Overcast
6:35 AM 10.4 °F - 6.8 °F 85% 30.35 in 10.0 mi Calm Calm - N/A   Overcast
6:55 AM 10.4 °F - 8.6 °F 92% 30.35 in 10.0 mi Calm Calm - N/A   Overcast
7:15 AM 10.4 °F - 8.6 °F 92% 30.36 in 10.0 mi Calm Calm - N/A   Overcast
7:35 AM 10.4 °F 4.0 °F 8.6 °F 92% 30.37 in 10.0 mi SSW 3.5 mph - N/A   Overcast
7:55 AM 10.4 °F - 8.6 °F 92% 30.38 in 10.0 mi Calm Calm - N/A   Overcast
8:15 AM 12.2 °F 6.1 °F 8.6 °F 85% 30.38 in 10.0 mi South 3.5 mph - N/A   Overcast
8:35 AM 12.2 °F 6.1 °F 10.4 °F 92% 30.39 in 10.0 mi South 3.5 mph - N/A   Overcast
8:55 AM 14.0 °F 6.5 °F 10.4 °F 86% 30.39 in 10.0 mi SSE 4.6 mph - N/A   Mostly Cloudy
9:15 AM 15.8 °F 7.2 °F 12.2 °F 86% 30.38 in 10.0 mi South 5.8 mph - N/A   Mostly Cloudy
9:35 AM 17.6 °F - 12.2 °F 79% 30.38 in 10.0 mi Calm Calm - N/A   Overcast
9:55 AM 17.6 °F 10.7 °F 10.4 °F 73% 30.39 in 10.0 mi SSW 4.6 mph - N/A   Scattered Clouds
10:15 AM 19.4 °F - 12.2 °F 74% 30.38 in 10.0 mi Calm Calm - N/A   Clear
10:35 AM 19.4 °F - 12.2 °F 74% 30.39 in 10.0 mi Calm Calm - N/A   Clear
10:55 AM 19.4 °F - 12.2 °F 74% 30.39 in 10.0 mi Calm Calm - N/A   Clear
11:15 AM 21.2 °F - 12.2 °F 68% 30.38 in 10.0 mi Calm Calm - N/A   Clear
11:35 AM 23.0 °F 17.0 °F 12.2 °F 63% 30.37 in 10.0 mi Variable 4.6 mph - N/A   Clear
11:55 AM 23.0 °F - 12.2 °F 63% 30.35 in 10.0 mi Calm Calm - N/A   Clear
12:15 PM 23.0 °F - 10.4 °F 59% 30.34 in 10.0 mi Calm Calm - N/A   Clear
12:35 PM 24.8 °F 20.5 °F 10.4 °F 54% 30.33 in 10.0 mi Variable 3.5 mph - N/A   Clear
12:55 PM 24.8 °F - 12.2 °F 59% 30.31 in 10.0 mi Calm Calm - N/A   Clear
1:15 PM 26.6 °F - 12.2 °F 55% 30.30 in 10.0 mi Calm Calm - N/A   Clear
1:35 PM 24.8 °F - 12.2 °F 59% 30.29 in 10.0 mi Calm Calm - N/A   Clear
1:55 PM 26.6 °F - 14.0 °F 59% 30.28 in 10.0 mi Calm Calm - N/A   Clear
2:15 PM 26.6 °F - 15.8 °F 64% 30.27 in 10.0 mi Calm Calm - N/A   Clear
2:35 PM 26.6 °F 21.2 °F 17.6 °F 69% 30.27 in 10.0 mi North 4.6 mph - N/A   Clear
2:55 PM 28.4 °F 23.3 °F 17.6 °F 64% 30.25 in 10.0 mi North 4.6 mph - N/A   Clear
3:15 PM 26.6 °F 21.2 °F 15.8 °F 64% 30.26 in 10.0 mi North 4.6 mph - N/A   Clear
3:35 PM 28.4 °F - 15.8 °F 59% 30.26 in 10.0 mi Calm Calm - N/A   Clear
3:55 PM 28.4 °F 23.3 °F 14.0 °F 55% 30.27 in 10.0 mi Variable 4.6 mph - N/A   Clear
4:15 PM 28.4 °F 23.3 °F 15.8 °F 59% 30.27 in 10.0 mi Variable 4.6 mph - N/A   Clear
4:35 PM 26.6 °F 21.2 °F 15.8 °F 64% 30.27 in 10.0 mi NNW 4.6 mph - N/A   Clear
4:55 PM 26.6 °F - 14.0 °F 59% 30.26 in 10.0 mi Calm Calm - N/A   Clear
5:15 PM 24.8 °F 19.1 °F 15.8 °F 69% 30.26 in 10.0 mi NNE 4.6 mph - N/A   Clear
5:35 PM 24.8 °F 20.5 °F 15.8 °F 69% 30.27 in 10.0 mi North 3.5 mph - N/A   Clear
5:55 PM 24.8 °F - 14.0 °F 64% 30.27 in 10.0 mi Calm Calm - N/A   Clear
6:15 PM 24.8 °F - 14.0 °F 64% 30.26 in 10.0 mi Calm Calm - N/A   Clear
6:35 PM 24.8 °F - 14.0 °F 64% 30.26 in 10.0 mi Calm Calm - N/A   Clear
6:55 PM 24.8 °F - 15.8 °F 69% 30.25 in 10.0 mi Calm Calm - N/A   Clear
7:35 PM 23.0 °F - 17.6 °F 80% 30.25 in 10.0 mi Calm Calm - N/A   Clear
7:55 PM 23.0 °F 18.4 °F 15.8 °F 74% 30.24 in 10.0 mi ESE 3.5 mph - N/A   Clear
8:15 PM 23.0 °F 17.0 °F 15.8 °F 74% 30.23 in 10.0 mi SE 4.6 mph - N/A   Clear
8:35 PM 23.0 °F 18.4 °F 15.8 °F 74% 30.23 in 10.0 mi SE 3.5 mph - N/A   Clear
8:55 PM 23.0 °F - 15.8 °F 74% 30.22 in 10.0 mi Calm Calm - N/A   Clear
9:15 PM 21.2 °F 16.4 °F 15.8 °F 80% 30.21 in 10.0 mi SE 3.5 mph - N/A   Clear
9:55 PM 23.0 °F - 15.8 °F 74% 30.20 in 10.0 mi Calm Calm - N/A   Clear
10:15 PM 23.0 °F - 15.8 °F 74% 30.20 in 10.0 mi Calm Calm - N/A   Clear
10:35 PM 21.2 °F - 15.8 °F 80% 30.20 in 10.0 mi Calm Calm - N/A   Clear
10:55 PM 23.0 °F - 15.8 °F 74% 30.20 in 10.0 mi Calm Calm - N/A   Clear
11:15 PM 23.0 °F - 15.8 °F 74% 30.20 in 10.0 mi Calm Calm - N/A   Clear
11:35 PM 21.2 °F - 15.8 °F 80% 30.19 in 10.0 mi Calm Calm - N/A   Clear
11:55 PM 21.2 °F 16.4 °F 15.8 °F 80% 30.18 in 10.0 mi East 3.5 mph - N/A   Clear